Terminal Aerodrome Forecast
Issued by NWS Raleigh/Durham, NC

Home | Current Version | Previous Version | Text Only | Print | Product List | Glossary On
Versions: 1 2 3 4 5 6 7 8 9 10 11 12 13 14 15 16 17 18 19 20 21 22 23 24 25 26 27 28 29 30 31 32 33 34 35 36 37 38 39 40 41 42 43 44 45 46 47 48
000
FTUS42 KRAH 301120
TAFRDU
TAF
KRDU 301120Z 3012/3112 13003KT P6SM OVC008
     FM301300 16003KT 4SM BR SCT007 BKN020
     FM301600 17004KT P6SM BKN040
     FM310800 21005KT 5SM BR SCT010=

USA.gov is the U.S. government's official web portal to all federal, state and local government web resources and services.